Back to catalog

SL-14 DEB

AlivePO
NORAD 26007·DEBRIS·🇷🇺 Russia

Launched Sep 28, 1991 from Plesetsk Cosmodrome

Loading…

Next Passes (next 24 hours)

TLE

FreshSource: Space-Track

Epoch: Sep 14, 2026, 14:54 UTC

1 26007U 91068S   26257.62096392  .00000018  00000-0  49253-4 0  9994
2 26007  82.7012 198.8256 0011293 344.6093 133.3196 12.48359294227094

Track SL-14 DEB in real time with AllMySat

Download on the App Store